CAPE
nan nan nan nan nan nan nan nan nan nan nan nan nan nan nan nan nan nan nan nan nan nan nan nan nan nan nan 73 115 115 145 180 212 212 227 224 216 216 208 203 203 198 208 237 237 271 272 252 252 236 218 212 221 221 232 237 237 248 256 291 291 346 350 322 322 276 285 276 261 261 254 265 308 308 344 349 350 350 342 312 312 319 319 305 305 270
nan nan nan nan nan nan nan nan nan nan nan nan nan nan nan nan nan nan nan nan nan nan nan 1 1 nan nan 6 113 113 154 215 236 236 223 208 192 192 182 172 172 171 175 181 181 199 215 204 204 198 197 199 218 218 223 236 236 255 293 325 325 356 317 286 286 273 278 284 264 264 257 267 299 299 319 338 343 343 335 314 314 329 355 352 352 311
nan nan nan nan nan nan nan nan nan nan nan nan nan nan nan nan nan nan nan nan nan 6 9 3 3 nan nan 1 143 143 186 225 216 216 196 171 159 159 158 150 150 144 150 157 157 169 177 174 174 184 192 215 228 228 243 251 251 277 312 329 329 306 270 249 249 253 270 277 281 281 286 290 323 323 333 343 355 355 347 325 325 348 391 376 376 345
nan nan nan nan nan nan nan nan nan nan nan nan nan nan nan nan nan nan nan 4 4 10 3 nan nan nan nan 11 114 114 178 188 177 177 160 149 142 142 140 135 135 140 142 145 145 157 165 178 178 186 209 232 250 250 257 263 263 283 289 279 279 249 228 212 212 222 238 254 279 279 306 317 333 333 340 371 367 367 360 339 339 370 387 355 355 323
0 0 0 2 2 nan nan nan nan nan nan nan nan nan nan nan 0 0 10 3 3 1 nan nan nan nan 7 14 65 65 135 148 146 146 144 136 132 132 126 124 124 130 138 145 145 158 171 184 184 204 237 264 278 278 273 266 266 263 247 225 225 204 198 194 194 194 199 219 245 245 271 280 301 301 336 363 361 361 347 352 352 380 359 332 332 323
3 5 7 3 3 0 nan nan nan nan nan nan nan nan nan 8 15 15 2 nan nan nan nan 3 3 2 2 nan 31 31 101 126 127 127 130 122 115 115 114 118 118 126 133 145 145 157 175 201 201 234 279 301 300 300 272 254 254 233 201 182 182 179 175 171 171 175 181 197 221 221 232 248 269 269 301 335 335 335 348 378 378 404 337 304 304 324
12 11 5 0 0 nan nan nan nan nan nan nan 1 1 28 16 0 0 nan nan nan nan 0 0 0 nan nan nan 35 35 80 93 101 101 93 94 97 97 99 108 108 114 125 142 142 160 191 221 221 275 307 304 272 272 229 204 204 184 167 164 164 157 157 162 162 168 174 185 199 199 209 211 229 229 258 304 323 323 353 383 383 403 339 310 310 314
7 1 0 nan nan nan nan nan 13 13 26 9 0 0 nan nan nan nan nan nan nan nan nan nan nan nan nan nan nan nan nan nan nan nan nan 1 31 31 60 93 93 111 138 167 167 202 247 263 263 246 205 180 168 168 153 135 135 125 126 131 131 136 144 149 149 153 162 176 186 186 193 203 219 219 241 252 286 286 333 356 356 352 319 303 303 290
0 nan nan nan nan nan nan 1 29 29 1 nan nan nan nan nan nan nan nan nan nan nan nan nan nan nan nan nan nan nan nan 0 nan nan nan nan nan nan 25 76 76 110 155 184 184 196 205 192 192 166 147 134 128 128 118 113 113 110 112 114 114 125 131 139 139 147 161 182 202 202 225 229 258 258 252 260 290 290 327 336 336 318 312 306 306 325
nan nan nan nan nan 0 6 0 nan nan nan nan nan nan nan nan nan nan nan nan nan nan nan nan nan nan nan nan nan nan nan nan 36 36 66 39 82 82 68 78 78 86 166 164 164 158 143 129 129 112 113 106 102 102 93 89 89 87 94 101 101 113 125 133 133 146 160 177 201 201 231 243 254 254 259 296 311 311 310 301 301 286 284 296 296 324
nan nan 0 5 5 2 nan nan nan nan nan nan nan nan nan nan nan nan nan nan nan nan nan nan nan nan nan nan nan nan nan nan nan nan nan 34 77 77 100 98 98 119 123 99 99 79 74 82 82 85 87 78 69 69 61 57 57 66 77 89 89 105 118 122 122 134 152 175 207 207 229 246 260 260 273 304 312 312 290 265 265 258 255 260 260 291
nan 6 4 nan nan nan nan nan nan nan nan nan nan nan nan nan nan nan nan nan nan nan nan nan nan nan nan nan nan nan nan nan nan nan nan nan 26 26 35 0 0 3 11 26 26 33 48 60 60 63 56 41 51 51 44 40 40 57 66 77 77 87 104 114 114 127 156 186 228 228 258 257 277 277 292 299 290 290 266 238 238 233 244 249 249 269
9 nan nan nan nan nan nan nan nan nan nan nan nan nan nan nan nan nan nan nan nan nan nan nan nan nan nan nan nan nan nan nan nan nan nan 23 4 4 nan nan nan nan nan nan nan nan 8 38 38 44 44 34 35 35 42 33 33 45 56 73 73 87 104 115 115 132 162 202 245 245 269 286 296 296 306 293 258 258 242 230 230 230 231 240 240 251
nan nan nan nan nan nan nan nan nan nan nan nan nan nan nan nan nan nan nan nan nan nan nan 0 0 0 nan nan nan nan nan nan nan nan 6 nan nan nan nan nan nan nan nan nan nan nan nan 4 4 nan 18 14 14 14 11 26 26 42 55 75 75 93 115 130 130 147 173 226 269 269 282 279 282 282 275 257 235 235 224 220 220 216 214 218 218 201
nan nan nan nan nan nan nan nan nan nan nan nan nan nan nan nan nan nan nan nan nan nan 1 1 1 2 1 nan nan nan 0 15 14 14 nan nan nan nan nan nan nan nan nan nan nan nan nan nan nan nan nan nan nan nan 3 22 22 67 72 91 91 112 128 142 142 154 196 238 252 252 248 223 235 235 225 226 223 223 215 213 213 221 212 176 176 152
nan nan nan nan nan nan nan nan nan nan nan nan nan nan nan nan nan nan 0 2 2 6 6 5 5 5 4 2 12 12 28 6 nan nan nan nan nan nan nan nan nan nan nan nan nan nan nan nan nan nan nan nan 29 29 50 57 57 88 94 106 106 120 136 164 164 192 221 225 207 207 189 173 172 172 192 198 208 208 217 235 235 236 215 157 157 116
nan nan nan nan nan nan nan nan nan nan nan nan nan nan nan nan 2 2 9 14 14 15 14 15 15 9 12 10 37 37 29 nan nan nan nan nan nan nan nan nan nan nan nan nan nan nan nan nan nan nan nan 7 54 54 71 87 87 108 126 130 130 124 142 182 182 219 208 168 146 146 133 131 143 143 157 170 191 191 214 237 237 242 182 136 136 98
nan nan nan nan nan nan nan nan nan nan nan nan nan nan 1 8 15 15 21 27 27 25 31 21 21 16 16 15 11 11 0 nan nan nan nan nan nan nan nan nan nan nan nan nan nan nan nan nan nan nan nan 57 88 88 111 139 139 131 127 120 120 117 131 144 144 163 148 127 111 111 107 114 126 126 138 148 173 173 221 239 239 208 150 103 103 97
nan nan nan nan nan nan nan nan nan nan nan nan 6 6 14 25 30 30 34 26 26 17 18 17 17 19 15 12 2 2 nan nan nan nan nan nan nan nan nan nan nan nan nan nan nan nan nan nan nan 0 45 94 124 124 140 135 135 119 113 108 108 109 111 101 101 95 93 95 97 97 102 118 123 123 138 153 182 182 222 220 220 175 123 105 105 99
nan nan nan nan nan nan nan nan nan nan 0 14 23 23 26 22 13 13 3 2 2 2 5 5 5 6 5 3 1 1 0 0 0 0 nan nan nan nan nan nan nan nan nan nan nan nan nan nan nan 4 91 120 133 133 119 102 102 100 100 105 105 97 89 84 84 86 90 96 107 107 115 125 128 128 142 168 209 209 222 195 195 147 115 103 103 115
nan nan nan nan nan nan nan nan 3 3 32 36 14 14 10 1 nan nan nan nan nan 1 2 7 7 7 5 6 7 7 2 0 nan nan 0 0 nan nan nan nan nan nan nan nan nan nan 1 18 18 30 71 105 97 97 83 87 87 94 96 96 96 89 83 83 83 91 97 111 120 120 126 133 145 145 170 192 192 192 178 153 153 131 129 135 135 141
nan nan nan nan nan nan 1 7 37 37 50 6 nan nan nan nan nan nan 0 3 3 6 13 16 16 13 14 19 6 6 nan nan nan nan 0 0 nan nan nan nan nan nan nan nan nan 6 24 9 9 nan 18 72 70 70 73 86 86 94 97 97 97 90 84 84 84 93 100 114 125 125 129 159 189 189 199 190 157 157 143 148 148 156 158 158 158 173
nan nan nan nan nan nan 15 22 19 19 9 nan nan nan nan 0 3 3 7 13 13 19 19 18 18 15 20 8 nan nan nan nan nan nan nan 0 nan nan nan nan nan nan 1 4 4 11 1 nan nan nan 13 66 68 68 73 78 78 89 92 93 93 98 93 94 94 97 105 116 128 128 151 189 214 214 185 156 147 147 151 171 171 185 197 185 185 200
nan nan nan 3 3 15 24 15 nan nan nan nan 1 1 4 8 11 11 17 17 17 19 16 14 14 15 6 nan nan nan nan nan nan nan nan 1 0 0 nan nan nan 6 9 4 4 0 nan nan nan nan 1 52 66 66 69 73 73 79 86 97 97 99 106 112 112 111 120 127 149 149 189 219 205 205 175 150 158 158 177 195 195 206 205 195 195 192
nan 4 22 31 31 42 22 1 0 0 nan 2 4 4 8 28 39 39 19 9 9 9 14 15 15 9 nan 3 nan nan nan nan nan nan 0 0 nan nan 0 2 2 5 3 nan nan nan nan nan nan nan nan 10 48 48 60 70 70 79 86 96 96 100 111 116 116 120 128 154 181 181 216 220 190 190 167 159 174 174 187 200 200 205 195 186 186 187
53 84 83 87 87 119 113 105 98 98 72 25 7 7 6 18 14 14 5 7 7 12 15 8 8 0 nan nan nan nan nan nan 0 0 nan nan 1 1 nan nan nan 0 0 nan nan nan nan nan nan nan nan nan 34 34 51 63 63 74 84 95 95 104 111 117 117 128 141 169 196 196 213 207 194 194 181 180 188 188 192 191 191 190 191 183 183 178
164 173 173 151 151 126 116 118 122 122 139 97 29 29 10 6 7 7 9 11 11 16 13 2 2 nan 0 0 nan nan 0 1 nan nan 0 nan nan nan nan nan nan nan 0 nan nan nan 0 nan nan nan nan nan 1 1 41 58 58 72 83 96 96 101 112 119 119 132 151 178 199 199 208 205 195 195 191 196 209 209 208 201 201 198 199 190 190 176
152 128 100 86 86 83 89 101 101 101 101 104 114 114 55 6 6 6 9 7 7 11 8 2 2 1 nan 0 nan nan nan 0 nan nan nan nan nan nan nan nan nan nan nan nan nan 0 23 5 5 nan nan nan nan nan 14 54 54 68 80 85 85 92 99 107 107 130 152 179 198 198 196 196 198 198 200 206 210 210 207 208 208 200 196 171 171 97
93 70 63 57 57 61 67 71 68 68 73 79 95 95 55 5 4 4 5 5 5 5 2 1 1 1 0 0 nan nan nan 0 nan nan nan nan nan nan nan nan nan nan nan nan nan 1 4 nan nan nan nan nan nan nan 1 44 44 58 70 74 74 74 85 103 103 125 151 168 175 175 178 184 194 194 186 182 180 180 181 188 188 188 164 114 114 56
nan 8 18 27 27 38 37 15 33 33 56 68 78 78 54 6 4 4 6 3 3 0 nan 2 2 1 0 0 nan nan nan nan nan nan nan nan nan nan nan nan nan nan nan nan nan nan nan nan nan nan nan 0 nan nan nan nan nan 2 19 49 49 60 80 103 103 124 136 144 157 157 162 157 161 161 150 139 136 136 141 137 137 127 81 52 52 39
nan nan nan nan nan nan nan nan 3 3 39 63 65 65 42 1 nan nan 0 nan nan 0 nan 1 1 1 0 nan nan nan nan nan nan nan nan nan nan nan nan nan nan nan nan nan nan nan nan nan nan nan nan nan nan nan nan nan nan nan nan 2 2 27 71 90 90 105 120 130 137 137 142 128 118 118 107 104 111 111 121 122 122 97 51 38 38 37
nan nan nan nan nan nan nan nan nan nan nan nan nan nan 10 13 9 9 0 nan nan nan nan nan nan nan nan nan nan nan nan nan 1 1 1 nan nan nan nan nan nan nan nan nan nan nan nan nan nan nan nan nan nan nan nan nan nan nan 0 1 1 nan 35 59 59 70 58 74 70 70 58 56 57 57 64 69 81 81 89 93 93 93 51 35 35 38
nan nan nan nan nan nan nan nan nan nan nan nan nan nan nan 0 15 15 5 nan nan nan nan nan nan nan nan nan nan nan nan nan 8 8 14 nan nan nan nan nan nan nan nan nan nan nan nan nan nan nan nan nan nan nan nan 1 1 4 0 0 0 nan 7 15 15 9 17 21 19 19 33 35 43 43 45 49 55 55 64 72 72 85 74 33 33 36
nan nan nan nan nan nan nan nan nan nan nan nan nan nan nan nan nan nan 1 nan nan nan nan nan nan nan nan nan nan nan nan nan 11 11 12 nan nan nan nan nan nan nan nan nan nan nan nan nan nan nan nan nan nan nan nan 0 0 nan nan nan nan nan nan nan nan 0 nan 0 nan nan 1 3 25 25 28 36 41 41 45 52 52 65 85 55 55 41
nan nan nan nan nan nan nan nan nan nan nan nan nan nan nan nan nan nan nan nan nan nan nan nan nan nan nan nan nan nan nan nan 3 3 14 nan nan nan nan nan nan nan nan nan nan nan nan nan nan 2 nan nan 0 0 nan nan nan nan nan nan nan nan nan nan nan nan nan nan nan nan nan nan 0 0 8 21 29 29 38 45 45 53 74 86 86 70
nan nan nan nan nan nan nan nan nan nan nan nan nan nan nan nan nan nan nan nan nan nan 2 nan nan nan nan nan nan nan nan nan 2 2 10 nan nan nan nan nan nan nan nan nan nan nan nan nan nan 2 7 2 0 0 nan nan nan nan nan nan nan nan nan nan nan nan nan nan nan nan nan nan 0 0 2 22 29 29 34 39 39 44 59 79 79 83
nan nan nan nan nan nan nan nan nan nan nan nan nan nan nan nan nan nan nan nan nan nan nan 2 2 nan 5 nan nan nan nan nan nan nan 0 nan nan nan nan nan nan 0 nan nan nan nan nan nan nan 0 3 1 nan nan nan nan nan nan nan nan nan nan nan nan nan nan nan 0 nan nan nan nan 1 1 5 20 22 22 27 32 32 35 40 53 53 70
1 0 nan nan nan nan nan nan nan nan nan nan nan nan nan nan nan nan nan nan nan nan nan nan nan nan 3 17 nan nan nan nan nan nan nan nan nan nan nan nan nan nan nan nan nan nan nan 1 1 2 0 nan nan nan nan nan nan nan nan nan nan nan nan nan nan nan nan nan 3 3 3 2 nan nan 0 2 2 2 2 4 4 16 27 29 29 43
nan nan nan nan nan nan nan nan nan nan nan nan nan nan nan nan nan nan nan nan nan nan nan nan nan nan nan nan 0 0 3 nan nan nan nan nan nan nan nan nan nan nan nan nan nan nan 3 4 4 2 nan nan nan nan nan nan nan nan nan nan nan nan nan nan nan nan nan nan 2 2 1 nan nan nan nan nan nan nan nan nan nan 5 8 7 7 18
1 nan nan 1 1 nan nan nan nan nan nan nan nan nan nan nan nan nan nan nan nan nan nan nan nan nan nan nan nan nan nan nan nan nan nan nan nan nan nan nan nan nan nan nan nan 5 9 3 3 nan nan nan nan nan nan nan nan nan 0 nan nan nan nan nan nan nan nan nan nan nan nan nan nan nan nan nan nan nan nan nan nan 0 3 1 1 1
2 nan nan nan nan nan nan nan nan nan nan nan nan nan nan nan nan nan nan nan nan nan nan nan nan nan nan nan nan nan nan nan nan nan nan nan nan nan nan nan nan nan nan 6 6 12 7 nan nan nan nan nan nan nan nan nan nan 1 3 nan nan nan nan nan nan nan nan nan nan nan 0 1 1 1 0 0 nan nan nan nan nan nan 0 0 0 1
9 2 nan nan nan nan nan nan nan nan nan nan nan nan nan nan nan nan nan nan nan nan nan nan nan nan nan nan nan nan nan nan nan nan nan nan nan nan nan nan nan 0 10 14 14 7 1 nan nan nan nan nan nan nan nan nan nan nan 0 nan nan nan nan nan nan nan nan nan nan nan 1 nan nan nan nan nan nan nan nan nan nan 1 2 0 0 1
nan nan nan nan nan nan nan nan nan nan nan nan nan nan nan nan nan nan nan nan nan nan nan nan nan nan nan nan nan nan nan nan nan nan nan nan nan nan nan 3 3 14 19 11 11 0 nan nan nan nan nan nan nan nan nan nan nan nan nan nan nan nan nan nan nan nan nan nan nan nan nan nan nan nan nan nan nan nan nan 0 0 4 4 2 2 0
nan nan nan nan nan nan nan nan nan nan nan nan nan nan nan nan nan nan nan nan nan nan nan nan nan nan nan nan nan nan nan nan nan nan nan nan nan nan 4 9 9 11 6 0 0 nan nan nan nan nan nan nan nan nan nan nan nan nan nan nan nan nan nan nan nan nan nan nan nan nan nan nan nan nan nan nan nan nan nan nan nan nan 1 0 0 nan
nan nan nan nan nan nan nan nan nan nan nan nan nan nan nan nan nan nan nan nan nan nan nan nan nan nan nan nan nan nan nan nan nan nan nan 13 46 46 12 2 2 1 nan nan nan nan nan nan nan nan nan nan nan nan nan nan nan nan nan nan nan nan nan nan nan nan nan nan nan nan nan nan nan nan nan nan nan nan nan nan nan nan nan nan nan nan
nan nan nan nan nan nan nan nan nan nan nan nan nan nan nan nan nan nan nan nan nan nan nan nan nan nan nan nan nan nan nan nan nan nan nan nan nan nan 0 2 2 nan nan nan nan nan nan nan nan nan nan nan nan nan nan nan nan nan nan nan nan nan nan nan nan nan nan nan nan nan nan nan nan nan nan nan nan nan nan nan nan nan nan nan nan nan
nan nan nan nan nan nan nan nan nan nan nan nan nan nan nan nan nan nan nan nan nan nan nan nan nan nan nan nan nan nan nan nan nan nan 0 nan nan nan nan nan nan nan nan nan nan nan nan nan nan nan nan nan nan nan nan nan nan nan nan nan nan nan nan nan nan nan nan nan nan nan nan nan nan nan nan nan nan nan nan nan nan nan nan nan nan nan
nan nan nan nan nan nan nan nan nan nan nan nan nan nan nan nan nan nan nan nan nan nan nan nan nan nan nan nan nan nan nan nan 2 2 nan nan nan nan nan nan nan nan nan nan nan nan nan nan nan nan nan nan nan nan nan nan nan nan nan nan nan nan nan nan nan nan nan nan nan nan nan nan nan nan nan nan nan nan nan nan nan nan nan nan nan nan
nan nan nan nan nan nan nan nan nan nan nan nan nan nan nan nan 14 14 nan nan nan nan nan nan nan nan nan nan nan nan 2 5 1 1 nan nan nan nan nan nan nan nan nan nan nan nan nan nan nan nan nan nan nan nan nan nan nan nan nan nan nan nan nan nan nan nan nan nan nan nan nan nan nan nan nan nan nan nan nan nan nan nan nan nan nan nan
nan nan nan nan nan nan nan nan nan nan nan nan nan nan nan nan nan nan nan nan nan nan nan nan nan nan nan nan 0 0 3 1 nan nan nan nan nan nan nan nan nan nan nan nan nan nan nan nan nan nan nan nan nan nan nan nan nan nan nan nan nan nan nan nan nan nan nan nan nan nan nan nan nan nan nan nan nan nan nan nan nan nan nan nan nan nan
nan nan nan nan nan nan nan nan nan nan nan nan nan nan nan nan nan nan nan nan nan nan nan nan nan nan nan nan 3 3 2 nan nan nan nan nan nan nan nan nan nan nan nan nan nan nan nan nan nan nan nan 0 1 1 nan nan nan nan nan nan nan nan nan nan nan nan nan nan nan nan nan nan nan nan nan nan nan nan nan nan nan nan nan nan nan nan
CIN
nan nan nan nan nan nan nan nan nan nan nan nan nan nan nan nan nan nan nan nan nan nan nan nan nan nan nan 0 0 0 0 0 0 0 0 0 0 0 0 0 0 0 0 0 0 0 0 0 0 0 0 0 0 0 0 0 0 0 0 0 0 0 0 0 0 0 0 0 0 0 0 0 0 0 0 0 0 0 0 0 0 0 0 0 0 0
nan nan nan nan nan nan nan nan nan nan nan nan nan nan nan nan nan nan nan nan nan nan nan -42 -42 nan nan -15 0 0 0 0 0 0 0 0 0 0 0 0 0 0 0 0 0 0 0 0 0 0 0 0 0 0 0 0 0 0 0 0 0 0 0 0 0 0 0 0 0 0 0 0 0 0 0 0 0 0 0 0 0 0 0 0 0 0
nan nan nan nan nan nan nan nan nan nan nan nan nan nan nan nan nan nan nan nan nan -19 -25 -30 -30 nan nan -33 0 0 0 0 0 0 0 0 0 0 0 0 0 0 0 0 0 0 0 0 0 0 0 0 0 0 0 0 0 0 0 0 0 0 0 0 0 0 0 0 0 0 0 0 0 0 0 0 0 0 0 0 0 0 0 0 0 0
nan nan nan nan nan nan nan nan nan nan nan nan nan nan nan nan nan nan nan -10 -10 -20 -28 nan nan nan nan -27 0 0 0 0 0 0 0 0 0 0 0 0 0 0 0 0 0 0 0 0 0 0 0 0 0 0 0 0 0 0 0 0 0 0 0 0 0 0 0 0 0 0 0 0 0 0 0 0 0 0 0 0 0 0 0 0 0 0
-20 -0 -9 -8 -8 nan nan nan nan nan nan nan nan nan nan nan -13 -13 -10 -26 -26 -35 nan nan nan nan -30 -21 0 0 0 0 0 0 0 0 0 0 0 0 0 0 0 0 0 0 0 0 0 0 0 0 0 0 0 0 0 0 0 0 0 0 0 0 0 0 0 0 0 0 0 0 0 0 0 0 0 0 0 0 0 0 0 0 0 0
-13 -4 -3 -0 -0 -0 nan nan nan nan nan nan nan nan nan -6 -8 -8 -22 nan nan nan nan -40 -40 -48 -39 nan -0 -0 0 0 0 0 0 0 0 0 0 0 0 0 0 0 0 0 0 0 0 0 0 0 0 0 0 0 0 0 0 0 0 0 0 0 0 0 0 0 0 0 0 0 0 0 0 0 0 0 0 0 0 0 0 0 0 0
-7 -4 -9 -10 -10 nan nan nan nan nan nan nan -17 -17 -7 -10 -25 -25 nan nan nan nan -35 -36 -36 nan nan nan 0 0 0 0 0 0 0 0 0 0 0 0 0 0 0 0 0 0 0 0 0 0 0 0 0 0 0 0 0 0 0 0 0 0 0 0 0 0 0 0 0 0 0 0 0 0 0 0 0 0 0 0 0 0 0 0 0 0
-6 -10 -12 nan nan nan nan nan -15 -15 -3 -6 -12 -12 nan nan nan nan nan nan nan nan nan nan nan nan nan nan nan nan nan nan nan nan nan -0 0 0 0 0 0 0 0 0 0 0 0 0 0 0 0 0 0 0 0 0 0 0 0 0 0 0 0 0 0 0 0 0 0 0 0 0 0 0 0 0 0 0 0 0 0 0 0 0 0 0
-21 nan nan nan nan nan nan -8 -9 -9 -27 nan nan nan nan nan nan nan nan nan nan nan nan nan nan nan nan nan nan nan nan -7 nan nan nan nan nan nan 0 0 0 0 0 0 0 0 0 0 0 0 0 0 0 0 0 0 0 0 0 0 0 0 0 0 0 0 0 0 0 0 0 0 0 0 0 0 0 0 0 0 0 0 0 0 0 0
nan nan nan nan nan -20 -1 -3 nan nan nan nan nan nan nan nan nan nan nan nan nan nan nan nan nan nan nan nan nan nan nan nan 0 0 0 0 0 0 0 0 0 0 0 0 0 0 0 0 0 0 0 0 0 0 0 0 0 0 0 0 0 0 0 0 0 0 0 0 0 0 0 0 0 0 0 0 0 0 0 0 0 0 0 0 0 0
nan nan -28 -8 -8 -6 nan nan nan nan nan nan nan nan nan nan nan nan nan nan nan nan nan nan nan nan nan nan nan nan nan nan nan nan nan 0 0 0 0 0 0 0 0 0 0 0 0 0 0 0 0 0 0 0 0 0 0 0 0 0 0 0 0 0 0 0 0 0 0 0 0 0 0 0 0 0 0 0 0 0 0 0 0 0 0 0
nan -11 -1 nan nan nan nan nan nan nan nan nan nan nan nan nan nan nan nan nan nan nan nan nan nan nan nan nan nan nan nan nan nan nan nan nan -2 -2 -1 -17 -17 -2 -0 0 0 0 0 0 0 0 0 0 0 0 0 0 0 0 0 0 0 0 0 0 0 0 0 0 0 0 0 0 0 0 0 0 0 0 0 0 0 0 0 0 0 0
-8 nan nan nan nan nan nan nan nan nan nan nan nan nan nan nan nan nan nan nan nan nan nan nan nan nan nan nan nan nan nan nan nan nan nan -7 -21 -21 nan nan nan nan nan nan nan nan 0 0 0 0 0 0 0 0 0 0 0 0 0 0 0 0 0 0 0 0 0 0 0 0 0 0 0 0 0 0 0 0 0 0 0 0 0 0 0 0
nan nan nan nan nan nan nan nan nan nan nan nan nan nan nan nan nan nan nan nan nan nan nan -26 -26 -29 nan nan nan nan nan nan nan nan -9 nan nan nan nan nan nan nan nan nan nan nan nan 0 0 nan 0 0 0 0 0 0 0 0 0 0 0 0 0 0 0 0 0 0 0 0 0 0 0 0 0 0 0 0 0 0 0 0 0 0 0 0
nan nan nan nan nan nan nan nan nan nan nan nan nan nan nan nan nan nan nan nan nan nan -36 -30 -30 -28 -32 nan nan nan -68 -13 -4 -4 nan nan nan nan nan nan nan nan nan nan nan nan nan nan nan nan nan nan nan nan 0 0 0 0 0 0 0 0 0 0 0 0 0 0 0 0 0 0 0 0 0 0 0 0 0 0 0 0 0 0 0 0
nan nan nan nan nan nan nan nan nan nan nan nan nan nan nan nan nan nan -22 -20 -20 -20 -18 -16 -16 -16 -18 -40 -59 -59 -25 -24 nan nan nan nan nan nan nan nan nan nan nan nan nan nan nan nan nan nan nan nan 0 0 0 0 0 0 0 0 0 0 0 0 0 0 0 0 0 0 0 0 0 0 0 0 0 0 0 0 0 0 0 0 0 0
nan nan nan nan nan nan nan nan nan nan nan nan nan nan nan nan -24 -24 -15 -11 -11 -12 -10 -8 -8 -8 -8 -18 -28 -28 -24 nan nan nan nan nan nan nan nan nan nan nan nan nan nan nan nan nan nan nan nan 0 0 0 0 0 0 0 0 0 0 0 0 0 0 0 0 0 0 0 0 0 0 0 0 0 0 0 0 0 0 0 0 0 0 0
nan nan nan nan nan nan nan nan nan nan nan nan nan nan -23 -23 -14 -14 -9 -6 -6 -5 -4 -5 -5 -5 -4 -6 -16 -16 -49 nan nan nan nan nan nan nan nan nan nan nan nan nan nan nan nan nan nan nan nan 0 0 0 0 0 0 0 0 0 0 0 0 0 0 0 0 0 0 0 0 0 0 0 0 0 0 0 0 0 0 0 0 0 0 0
nan nan nan nan nan nan nan nan nan nan nan nan -15 -15 -10 -6 -4 -4 -3 -5 -5 -5 -4 -3 -3 -3 -4 -5 -12 -12 nan nan nan nan nan nan nan nan nan nan nan nan nan nan nan nan nan nan nan -20 0 0 0 0 0 0 0 0 0 0 0 0 0 0 0 0 0 0 0 0 0 0 0 0 0 0 0 0 0 0 0 0 0 0 0 0
nan nan nan nan nan nan nan nan nan nan -15 -5 -3 -3 -1 -3 -5 -5 -10 -10 -10 -11 -8 -6 -6 -6 -8 -11 -20 -20 -37 -33 -17 -17 nan nan nan nan nan nan nan nan nan nan nan nan nan nan nan -30 0 0 0 0 0 0 0 0 0 0 0 0 0 0 0 0 0 0 0 0 0 0 0 0 0 0 0 0 0 0 0 0 0 0 0 0
nan nan nan nan nan nan nan nan -13 -13 -1 -1 -3 -3 -3 -9 nan nan nan nan nan -13 -12 -7 -7 -8 -11 -13 -17 -17 -31 -29 nan nan -11 -10 nan nan nan nan nan nan nan nan nan nan -43 -17 -17 -12 0 0 0 0 0 0 0 0 0 0 0 0 0 0 0 0 0 0 0 0 0 0 0 0 0 0 0 0 0 0 0 0 0 0 0 0
nan nan nan nan nan nan -8 -13 -1 -1 -0 -13 nan nan nan nan nan nan -15 -11 -11 -9 -5 -5 -5 -8 -9 -9 -18 -18 nan nan nan nan -12 -7 nan nan nan nan nan nan nan nan nan -28 -23 -32 -32 nan -14 0 0 0 0 0 0 0 0 0 0 0 0 0 0 0 0 0 0 0 0 0 0 0 0 0 0 0 0 0 0 0 0 0 0 0
nan nan nan nan nan nan -12 -15 -14 -14 -16 nan nan nan nan -19 -13 -13 -10 -7 -7 -5 -5 -6 -6 -9 -9 -16 nan nan nan nan nan nan nan -7 nan nan nan nan nan nan -15 -20 -20 -24 -55 nan nan nan -6 0 0 0 0 0 0 0 0 0 0 0 0 0 0 0 0 0 0 0 0 0 0 0 0 0 0 0 0 0 0 0 0 0 0 0
nan nan nan -29 -29 -23 -17 -20 nan nan nan nan -25 -25 -26 -16 -9 -9 -7 -8 -8 -6 -7 -7 -7 -8 -17 nan nan nan nan nan nan nan nan -3 -11 -11 nan nan nan -7 -6 -20 -20 -33 nan nan nan nan -32 0 0 0 0 0 0 0 0 0 0 0 0 0 0 0 0 0 0 0 0 0 0 0 0 0 0 0 0 0 0 0 0 0 0 0
nan -32 -15 -14 -14 -8 -19 -41 -31 -31 nan -24 -20 -20 -16 -4 -0 -0 -7 -11 -11 -9 -6 -5 -5 -9 nan -7 nan nan nan nan nan nan -15 -9 nan nan -18 -16 -16 -6 -8 nan nan nan nan nan nan nan nan -6 0 0 0 0 0 0 0 0 0 0 0 0 0 0 0 0 0 0 0 0 0 0 0 0 0 0 0 0 0 0 0 0 0 0
-4 -2 -3 -0 -0 0 0 0 0 0 0 -3 -13 -13 -10 -3 -5 -5 -11 -9 -9 -5 -5 -10 -10 -18 nan nan nan nan nan nan -34 -34 nan nan -11 -11 nan nan nan -14 -12 nan nan nan nan nan nan nan nan nan 0 0 0 0 0 0 0 0 0 0 0 0 0 0 0 0 0 0 0 0 0 0 0 0 0 0 0 0 0 0 0 0 0 0
0 0 0 0 0 0 0 0 0 0 0 0 0 0 -5 -9 -7 -7 -4 -4 -4 -4 -5 -13 -13 nan -14 -14 nan nan -19 -21 nan nan -20 nan nan nan nan nan nan nan -8 nan nan nan -15 nan nan nan nan nan -11 -11 0 0 0 0 0 0 0 0 0 0 0 0 0 0 0 0 0 0 0 0 0 0 0 0 0 0 0 0 0 0 0 0
0 0 0 0 0 0 0 0 0 0 0 0 0 0 0 -7 -6 -6 -3 -5 -5 -5 -6 -9 -9 -9 nan -13 nan nan nan -19 nan nan nan nan nan nan nan nan nan nan nan nan nan -15 -0 -8 -8 nan nan nan nan nan -2 0 0 0 0 0 0 0 0 0 0 0 0 0 0 0 0 0 0 0 0 0 0 0 0 0 0 0 0 0 0 -1
0 0 0 0 0 0 0 0 0 0 0 0 0 0 0 -7 -4 -4 -4 -6 -6 -6 -7 -6 -6 -7 -8 -10 nan nan nan -14 nan nan nan nan nan nan nan nan nan nan nan nan nan -14 -10 nan nan nan nan nan nan nan -33 0 0 0 0 0 0 0 0 0 0 0 0 0 0 0 0 0 0 0 0 0 0 0 0 0 0 0 0 0 0 -3
nan 0 0 0 0 0 0 0 0 0 0 0 0 0 0 -6 -4 -4 -4 -6 -6 -7 nan -4 -4 -6 -8 -9 nan nan nan nan nan nan nan nan nan nan nan nan nan nan nan nan nan nan nan nan nan nan nan -29 nan nan nan nan nan -22 -1 0 0 0 0 0 0 0 0 0 0 0 0 0 0 0 0 0 0 0 0 0 0 0 -0 -4 -4 -5
nan nan nan nan nan nan nan nan -2 -2 0 0 0 0 0 -8 nan nan -9 nan nan -11 nan -7 -7 -5 -8 nan nan nan nan nan nan nan nan nan nan nan nan nan nan nan nan nan nan nan nan nan nan nan nan nan nan nan nan nan nan nan nan -12 -12 -0 0 0 0 0 0 0 0 0 0 0 0 0 0 0 0 0 0 0 0 0 -3 -6 -6 -5
nan nan nan nan nan nan nan nan nan nan nan nan nan nan -1 -0 -4 -4 -10 nan nan nan nan nan nan nan nan nan nan nan nan nan -8 -8 -8 nan nan nan nan nan nan nan nan nan nan nan nan nan nan nan nan nan nan nan nan nan nan nan -30 -17 -17 nan 0 0 0 0 0 0 0 0 0 0 0 0 0 0 0 0 0 0 0 0 -0 -1 -1 -1
nan nan nan nan nan nan nan nan nan nan nan nan nan nan nan -11 -1 -1 -5 nan nan nan nan nan nan nan nan nan nan nan nan nan -0 -0 0 nan nan nan nan nan nan nan nan nan nan nan nan nan nan nan nan nan nan nan nan -18 -18 -17 -27 -19 -19 nan -10 -6 -6 -7 -0 0 0 0 0 0 0 0 0 0 0 0 0 0 0 0 0 -0 -0 -1
nan nan nan nan nan nan nan nan nan nan nan nan nan nan nan nan nan nan -7 nan nan nan nan nan nan nan nan nan nan nan nan nan 0 0 0 nan nan nan nan nan nan nan nan nan nan nan nan nan nan nan nan nan nan nan nan -29 -29 nan nan nan nan nan nan nan nan -11 nan -6 nan nan -3 -0 0 0 0 0 0 0 0 0 0 0 0 0 0 -0
nan nan nan nan nan nan nan nan nan nan nan nan nan nan nan nan nan nan nan nan nan nan nan nan nan nan nan nan nan nan nan nan -1 -1 0 nan nan nan nan nan nan nan nan nan nan nan nan nan nan -2 nan nan -13 -13 nan nan nan nan nan nan nan nan nan nan nan nan nan nan nan nan nan nan -2 -2 0 0 0 0 0 0 0 0 0 0 0 0
nan nan nan nan nan nan nan nan nan nan nan nan nan nan nan nan nan nan nan nan nan nan -4 nan nan nan nan nan nan nan nan nan -2 -2 0 nan nan nan nan nan nan nan nan nan nan nan nan nan nan -2 -0 -4 -15 -15 nan nan nan nan nan nan nan nan nan nan nan nan nan nan nan nan nan nan -2 -2 -0 0 0 0 0 0 0 0 0 0 0 0
nan nan nan nan nan nan nan nan nan nan nan nan nan nan nan nan nan nan nan nan nan nan nan -2 -2 nan -1 nan nan nan nan nan nan nan -4 nan nan nan nan nan nan -1 nan nan nan nan nan nan nan -4 -4 -9 nan nan nan nan nan nan nan nan nan nan nan nan nan nan nan -2 nan nan nan nan -1 -1 -0 0 0 0 0 0 0 0 0 0 0 0
-10 -9 nan nan nan nan nan nan nan nan nan nan nan nan nan nan nan nan nan nan nan nan nan nan nan nan -3 -0 nan nan nan nan nan nan nan nan nan nan nan nan nan nan nan nan nan nan nan -11 -11 -8 -13 nan nan nan nan nan nan nan nan nan nan nan nan nan nan nan nan nan -0 -0 -0 -1 nan nan -1 -1 -1 -1 -0 -0 -0 0 0 0 0 0
nan nan nan nan nan nan nan nan nan nan nan nan nan nan nan nan nan nan nan nan nan nan nan nan nan nan nan nan -3 -3 -3 nan nan nan nan nan nan nan nan nan nan nan nan nan nan nan -10 -11 -11 -15 nan nan nan nan nan nan nan nan nan nan nan nan nan nan nan nan nan nan -0 -0 -1 nan nan nan nan nan nan nan nan nan nan -0 0 -0 -0 0
-7 nan nan -4 -4 nan nan nan nan nan nan nan nan nan nan nan nan nan nan nan nan nan nan nan nan nan nan nan nan nan nan nan nan nan nan nan nan nan nan nan nan nan nan nan nan -9 -8 -14 -14 nan nan nan nan nan nan nan nan nan -0 nan nan nan nan nan nan nan nan nan nan nan nan nan nan nan nan nan nan nan nan nan nan -1 -0 -0 -0 -0
-4 nan nan nan nan nan nan nan nan nan nan nan nan nan nan nan nan nan nan nan nan nan nan nan nan nan nan nan nan nan nan nan nan nan nan nan nan nan nan nan nan nan nan -9 -9 -7 -9 nan nan nan nan nan nan nan nan nan nan 0 0 nan nan nan nan nan nan nan nan nan nan nan -1 -1 -0 -0 -1 -1 nan nan nan nan nan nan -1 -1 -1 -0
-0 -2 nan nan nan nan nan nan nan nan nan nan nan nan nan nan nan nan nan nan nan nan nan nan nan nan nan nan nan nan nan nan nan nan nan nan nan nan nan nan nan -13 -7 -6 -6 -7 -7 nan nan nan nan nan nan nan nan nan nan nan -0 nan nan nan nan nan nan nan nan nan nan nan -0 nan nan nan nan nan nan nan nan nan nan 0 0 -0 -0 -0
nan nan nan nan nan nan nan nan nan nan nan nan nan nan nan nan nan nan nan nan nan nan nan nan nan nan nan nan nan nan nan nan nan nan nan nan nan nan nan -6 -6 -6 -4 -4 -4 -7 nan nan nan nan nan nan nan nan nan nan nan nan nan nan nan nan nan nan nan nan nan nan nan nan nan nan nan nan nan nan nan nan nan -0 -0 0 0 -0 -0 -0
nan nan nan nan nan nan nan nan nan nan nan nan nan nan nan nan nan nan nan nan nan nan nan nan nan nan nan nan nan nan nan nan nan nan nan nan nan nan -7 -8 -8 -5 -5 -7 -7 nan nan nan nan nan nan nan nan nan nan nan nan nan nan nan nan nan nan nan nan nan nan nan nan nan nan nan nan nan nan nan nan nan nan nan nan nan -0 -0 -0 nan
nan nan nan nan nan nan nan nan nan nan nan nan nan nan nan nan nan nan nan nan nan nan nan nan nan nan nan nan nan nan nan nan nan nan nan -3 0 0 -7 -12 -12 -8 nan nan nan nan nan nan nan nan nan nan nan nan nan nan nan nan nan nan nan nan nan nan nan nan nan nan nan nan nan nan nan nan nan nan nan nan nan nan nan nan nan nan nan nan
nan nan nan nan nan nan nan nan nan nan nan nan nan nan nan nan nan nan nan nan nan nan nan nan nan nan nan nan nan nan nan nan nan nan nan nan nan nan -16 -9 -9 nan nan nan nan nan nan nan nan nan nan nan nan nan nan nan nan nan nan nan nan nan nan nan nan nan nan nan nan nan nan nan nan nan nan nan nan nan nan nan nan nan nan nan nan nan
nan nan nan nan nan nan nan nan nan nan nan nan nan nan nan nan nan nan nan nan nan nan nan nan nan nan nan nan nan nan nan nan nan nan -12 nan nan nan nan nan nan nan nan nan nan nan nan nan nan nan nan nan nan nan nan nan nan nan nan nan nan nan nan nan nan nan nan nan nan nan nan nan nan nan nan nan nan nan nan nan nan nan nan nan nan nan
nan nan nan nan nan nan nan nan nan nan nan nan nan nan nan nan nan nan nan nan nan nan nan nan nan nan nan nan nan nan nan nan -7 -7 nan nan nan nan nan nan nan nan nan nan nan nan nan nan nan nan nan nan nan nan nan nan nan nan nan nan nan nan nan nan nan nan nan nan nan nan nan nan nan nan nan nan nan nan nan nan nan nan nan nan nan nan
nan nan nan nan nan nan nan nan nan nan nan nan nan nan nan nan 0 0 nan nan nan nan nan nan nan nan nan nan nan nan -2 -2 -6 -6 nan nan nan nan nan nan nan nan nan nan nan nan nan nan nan nan nan nan nan nan nan nan nan nan nan nan nan nan nan nan nan nan nan nan nan nan nan nan nan nan nan nan nan nan nan nan nan nan nan nan nan nan
nan nan nan nan nan nan nan nan nan nan nan nan nan nan nan nan nan nan nan nan nan nan nan nan nan nan nan nan -8 -8 -3 -5 nan nan nan nan nan nan nan nan nan nan nan nan nan nan nan nan nan nan nan nan nan nan nan nan nan nan nan nan nan nan nan nan nan nan nan nan nan nan nan nan nan nan nan nan nan nan nan nan nan nan nan nan nan nan
nan nan nan nan nan nan nan nan nan nan nan nan nan nan nan nan nan nan nan nan nan nan nan nan nan nan nan nan -3 -3 -2 nan nan nan nan nan nan nan nan nan nan nan nan nan nan nan nan nan nan nan nan -0 -2 -2 nan nan nan nan nan nan nan nan nan nan nan nan nan nan nan nan nan nan nan nan nan nan nan nan nan nan nan nan nan nan nan nan
Wind_Speed
9 10 10 11 11 10 11 12 12 13 12 11 10 10 10 11 11 11 13 14 14 13 13 13 13 14 16 19 23 25 27 27 28 29 30 30 30 30 31 32 33 33 33 33 32 32 32 32 32 33 32 32 32 31 31 31 31 30 30 29 28 29 29 30 31 32 32 33 33 34 34 33 32 31 30 29 28 27 26 26 27 27 28 28 29 30
10 10 9 11 11 11 11 12 12 12 13 12 12 11 11 12 11 10 11 13 13 13 12 12 12 13 14 15 19 22 24 26 28 29 30 30 30 31 32 33 34 34 33 33 32 32 32 32 32 32 32 32 31 31 30 30 29 29 28 28 29 29 30 31 31 32 32 32 33 33 33 32 32 31 30 29 28 27 27 27 26 27 27 28 28 29
11 11 9 10 10 11 11 12 12 12 13 13 13 12 13 13 12 10 10 11 11 11 11 11 11 12 12 13 16 21 23 26 28 29 30 30 31 32 33 34 34 34 34 33 32 32 32 32 32 31 31 31 30 29 29 29 29 29 29 29 30 31 31 31 31 31 31 31 32 31 31 31 30 29 29 29 29 28 28 27 27 27 27 28 28 28
10 11 10 9 10 11 12 12 12 12 12 12 13 13 13 12 10 10 9 10 10 10 10 10 10 10 10 11 14 19 23 26 27 29 29 31 32 33 34 35 34 34 33 32 32 31 31 31 31 31 30 29 29 28 28 28 29 29 30 31 31 32 32 32 32 31 31 31 30 30 29 29 28 28 28 29 29 29 28 28 27 27 28 28 27 27
10 10 10 10 10 10 11 12 12 12 11 11 11 11 11 10 9 9 9 9 10 9 9 9 9 10 10 10 13 18 23 25 27 29 30 31 33 34 34 34 34 33 32 31 31 30 30 30 30 29 29 28 28 28 28 29 30 31 31 32 32 32 32 32 32 31 31 30 30 29 29 28 27 27 28 29 29 29 28 28 27 27 28 28 27 27
9 10 10 10 9 10 10 10 10 10 10 9 9 9 8 8 8 8 8 9 9 9 9 9 9 10 11 11 14 18 22 25 27 29 30 31 32 33 33 33 32 32 31 30 30 30 29 29 29 28 28 28 28 29 29 30 31 32 32 33 33 33 32 32 32 31 31 30 29 29 28 28 28 28 28 29 28 28 27 27 27 27 27 27 27 26
10 9 9 10 10 9 9 9 9 8 7 6 6 6 7 7 8 9 9 9 9 9 9 10 10 10 10 12 14 17 20 23 25 27 29 30 31 31 31 31 31 30 30 30 29 29 28 28 28 28 28 28 29 30 31 32 32 33 33 33 33 33 32 32 31 30 30 29 29 28 28 28 28 28 28 28 27 27 26 26 26 26 27 27 26 25
11 10 10 10 10 9 8 7 7 6 5 5 6 7 7 7 7 8 9 9 9 9 9 9 9 9 10 11 12 14 15 17 18 20 22 24 25 27 27 28 29 29 29 29 28 28 27 27 28 28 29 29 30 31 32 33 34 34 33 33 33 32 32 31 30 30 29 28 28 28 28 28 28 28 28 27 26 25 25 25 25 26 26 26 25 25
12 12 12 11 10 9 8 6 4 4 5 5 6 7 8 8 8 8 9 9 8 8 8 9 10 10 10 10 11 12 13 14 15 15 17 17 18 20 23 24 26 26 27 27 27 27 27 27 28 29 30 31 32 33 34 34 34 34 33 32 32 31 31 30 29 29 28 28 28 28 28 28 28 27 27 26 25 25 24 24 25 25 26 25 24 23
12 13 12 9 7 6 6 6 5 5 5 6 6 6 7 8 9 10 11 10 9 8 8 9 10 11 11 10 10 11 13 15 17 19 20 20 21 22 22 22 21 22 23 24 25 26 26 27 29 30 31 32 33 34 34 34 34 33 32 31 31 30 29 29 29 28 28 28 28 28 28 28 27 27 26 25 24 24 24 24 25 25 25 24 23 23
11 10 8 6 4 4 4 6 6 6 6 6 6 6 6 7 9 11 13 13 12 10 9 9 9 10 10 10 10 10 11 12 14 16 19 20 22 23 22 20 19 20 21 22 24 25 26 28 29 31 32 33 34 34 33 33 32 31 30 30 29 29 29 29 29 28 28 28 29 29 29 28 27 26 25 24 24 24 24 25 25 25 25 24 23 22
8 6 4 4 5 5 6 6 6 6 6 7 7 8 8 8 8 9 12 13 13 12 11 10 9 9 9 10 10 10 11 11 11 11 12 13 13 13 13 13 14 15 17 19 20 23 25 27 29 30 31 31 32 32 32 30 30 30 29 29 29 29 28 29 29 29 29 29 29 29 29 28 27 25 24 24 24 24 25 25 25 25 25 24 23 23
5 4 4 5 6 7 7 7 7 7 7 8 9 10 10 9 8 8 9 12 12 12 11 11 10 10 9 9 9 9 10 10 10 9 8 7 6 5 6 7 8 9 11 12 13 16 20 23 25 27 28 28 29 30 30 29 29 29 29 29 29 29 29 29 29 30 30 30 30 29 28 27 26 24 24 24 25 25 26 25 25 25 25 24 24 24
5 5 6 7 7 7 7 8 9 9 9 9 9 10 10 10 9 9 10 11 11 11 11 11 11 10 8 8 8 8 8 9 8 8 6 5 4 5 6 7 9 9 10 10 11 12 15 17 18 20 23 24 26 27 27 27 28 29 29 29 29 29 29 30 30 31 31 31 30 28 27 26 25 24 24 25 26 26 27 26 26 25 25 25 25 24
6 7 8 8 8 7 7 8 9 10 10 9 9 9 9 10 10 10 10 11 11 10 10 11 11 10 7 7 6 6 6 6 6 6 6 6 6 6 7 9 10 10 10 10 10 11 14 14 13 13 16 19 21 23 25 26 28 29 29 29 30 30 30 30 31 31 32 31 29 28 26 25 25 25 25 26 27 27 27 27 26 25 25 25 25 25
7 7 8 9 9 8 8 8 9 10 10 9 9 9 10 10 10 9 10 11 10 9 9 10 10 10 7 6 5 4 4 4 5 6 8 9 8 7 9 9 11 11 10 10 10 10 11 11 12 13 14 18 22 26 28 28 29 29 30 30 31 31 31 31 31 31 31 30 29 28 27 26 26 26 27 27 27 27 27 27 26 26 25 25 25 25
7 7 8 9 9 9 9 9 9 9 9 9 8 8 9 9 9 9 9 9 9 8 8 9 9 9 7 6 4 3 3 5 6 8 10 11 10 9 9 9 10 11 10 10 10 10 10 10 11 12 13 18 22 26 28 28 29 30 30 31 31 31 31 31 30 30 29 29 29 28 28 28 28 28 28 28 28 28 27 26 26 25 25 25 25 26
8 8 8 9 10 10 10 9 8 8 8 9 9 9 9 8 8 8 8 8 8 8 8 8 8 8 8 7 6 4 5 7 8 10 12 12 11 9 8 8 9 11 11 10 10 10 10 11 12 13 15 21 25 27 28 29 29 30 31 31 32 32 31 31 30 30 30 30 30 30 29 29 29 29 29 29 28 28 27 26 26 26 26 26 26 26
9 8 9 9 9 9 9 8 8 8 8 9 9 9 9 8 7 8 8 8 9 9 10 10 9 9 9 9 9 8 8 8 9 11 12 12 10 9 7 8 10 11 11 11 11 11 10 11 14 17 21 24 25 26 28 29 30 31 31 32 32 32 32 32 31 31 31 31 31 31 30 30 30 29 29 29 28 27 26 26 26 26 26 26 26 26
9 8 8 8 9 9 9 8 8 8 9 9 8 8 8 8 9 10 10 10 10 10 10 10 10 10 9 10 10 10 8 8 9 10 11 12 11 9 7 9 10 11 11 10 10 10 10 10 12 14 18 20 23 25 27 29 30 31 32 32 32 32 32 32 32 32 32 32 31 31 30 30 30 29 29 28 27 26 26 26 26 26 26 26 26 26
10 10 7 7 7 8 9 9 9 9 9 9 9 8 9 9 10 10 10 10 10 10 9 9 10 10 9 10 10 9 8 8 8 9 9 10 9 9 7 8 9 10 11 10 10 9 8 8 8 9 12 18 22 26 28 29 30 31 32 32 33 33 33 33 33 32 32 31 31 30 30 30 29 29 28 27 26 26 25 26 26 26 26 26 26 26
9 9 9 8 8 8 9 9 9 9 10 10 9 9 9 10 10 10 10 9 9 10 10 10 10 10 10 10 10 9 8 7 7 8 8 9 10 9 7 7 8 10 11 10 9 8 7 7 8 9 13 20 24 27 29 30 31 31 32 32 33 33 33 33 33 32 32 31 31 31 30 29 29 28 27 26 25 25 26 26 26 26 26 27 27 27
9 10 10 9 9 9 8 8 8 8 9 10 10 9 8 9 9 10 10 9 9 10 10 11 11 10 10 9 9 8 7 6 6 7 7 10 10 9 7 7 8 10 10 9 8 8 8 8 9 11 15 21 24 27 29 30 31 31 32 32 32 32 33 33 33 32 32 32 32 31 30 29 28 27 26 26 26 26 27 27 27 27 27 27 27 27
10 10 10 9 8 7 7 8 8 9 9 10 10 10 9 9 9 10 9 9 10 10 10 11 11 10 9 9 9 8 7 7 6 6 6 8 9 9 7 7 9 10 10 10 9 10 10 10 10 10 11 18 22 25 28 29 30 31 31 31 31 32 32 32 32 32 32 32 32 31 30 29 28 28 27 27 27 28 28 28 28 28 28 28 28 28
10 10 9 9 10 11 13 13 14 14 14 12 12 11 11 11 11 11 10 10 10 10 10 10 10 9 8 9 9 9 7 7 7 6 6 7 8 9 8 8 9 10 11 10 10 10 10 11 10 10 10 14 19 24 26 28 29 30 30 31 31 31 31 31 32 32 32 32 31 30 29 29 29 29 29 29 29 29 30 29 29 29 28 28 28 28
15 14 15 17 20 23 25 25 25 24 23 19 15 13 11 11 11 10 10 9 9 9 10 10 10 9 8 8 8 8 7 7 6 6 6 6 8 9 8 7 8 10 11 10 9 10 11 11 11 11 10 12 16 20 24 26 28 29 30 30 30 30 31 31 31 31 31 31 30 29 29 29 29 30 30 30 30 31 31 30 30 29 29 28 28 27
21 22 24 26 27 28 28 28 28 29 29 26 22 19 15 12 10 10 10 9 9 9 10 10 10 9 9 8 8 8 7 7 6 6 6 7 8 8 8 7 8 9 11 10 10 10 12 12 12 11 11 10 12 15 21 24 26 28 29 29 29 30 30 31 31 31 30 30 30 29 30 30 30 31 31 31 31 31 30 30 29 29 28 27 24 22
21 23 24 25 26 27 27 27 27 27 27 26 27 25 19 13 10 10 10 9 9 9 10 10 10 9 8 8 8 8 8 7 6 6 6 6 6 7 8 8 8 9 10 10 10 11 12 12 11 10 10 10 10 11 16 20 23 25 26 27 28 29 30 30 30 30 30 30 30 30 31 31 31 31 31 30 30 30 29 29 28 27 26 22 17 14
19 21 23 24 25 25 25 24 24 24 24 25 25 23 18 12 10 9 10 9 9 9 10 10 10 9 9 9 9 9 9 7 7 6 6 6 6 7 8 8 9 9 9 9 9 9 9 9 8 8 8 9 9 9 10 14 17 19 21 24 26 27 28 28 28 29 29 29 30 30 31 30 30 30 30 29 29 29 29 29 28 25 20 16 13 11
14 16 17 18 19 19 19 17 17 19 21 23 23 21 16 11 9 9 9 9 9 9 10 10 10 9 9 9 9 9 8 6 6 6 6 6 6 7 8 8 9 8 7 7 7 7 7 6 6 7 7 9 9 8 8 10 11 12 14 17 19 21 23 25 26 27 28 28 29 29 29 29 29 29 29 30 30 29 29 30 27 22 14 11 10 9
12 12 12 13 13 13 12 12 12 14 16 18 18 16 13 10 9 8 8 8 8 8 9 9 10 9 9 8 8 7 6 6 6 7 7 6 6 7 8 8 8 8 7 6 6 7 7 6 6 6 7 8 9 9 9 10 10 10 10 11 12 14 19 22 23 25 25 26 26 27 27 28 29 29 29 30 29 29 29 29 26 21 12 10 9 9
12 11 11 11 10 10 10 10 10 10 11 11 11 11 10 10 9 8 7 7 7 8 9 9 9 9 9 8 8 8 6 6 8 9 9 7 6 6 7 8 8 8 7 7 7 7 7 7 6 6 7 9 9 9 10 10 10 9 8 9 9 11 16 18 20 20 20 22 23 25 26 27 28 29 29 29 29 29 29 29 26 21 13 10 10 10
12 11 10 10 10 9 9 9 8 8 8 8 8 8 8 9 9 8 7 7 7 8 8 9 9 10 9 9 9 9 8 8 9 11 11 8 6 6 7 8 8 9 8 8 8 8 8 8 8 8 8 8 9 9 10 9 9 8 7 8 8 10 13 14 14 15 15 17 19 20 23 24 25 26 27 28 28 28 28 28 27 23 17 12 10 10
12 11 11 10 10 9 9 9 9 8 8 8 8 8 8 8 8 8 8 7 7 8 8 9 9 9 10 9 9 9 9 9 11 12 12 9 7 6 7 8 9 9 9 8 8 8 8 9 9 9 8 8 8 8 8 7 7 7 6 7 7 8 10 10 11 11 12 13 13 14 16 17 19 21 23 24 25 25 26 26 26 25 22 16 12 10
11 11 10 10 9 9 9 9 9 9 8 8 8 8 8 8 8 8 8 8 8 8 8 8 9 9 9 9 9 9 9 10 11 13 13 10 8 7 8 8 8 9 8 8 8 8 7 10 11 11 10 9 8 7 6 6 7 7 6 7 8 8 8 9 9 10 11 11 11 11 11 12 13 15 17 19 21 23 24 25 26 26 26 22 18 13
10 10 10 9 9 9 9 9 9 9 9 8 8 8 8 8 8 8 8 8 9 9 9 9 9 9 9 10 10 10 11 11 12 13 14 11 10 8 7 8 8 9 9 9 8 8 8 10 11 12 12 10 9 7 7 7 8 8 9 9 9 9 9 9 9 9 10 10 10 11 10 10 11 12 13 18 21 23 24 25 25 26 26 25 24 20
9 9 9 9 9 9 9 9 9 9 9 9 8 8 9 9 9 9 9 9 9 9 10 11 11 11 11 11 11 11 11 11 12 13 14 13 11 10 8 8 9 9 9 9 9 9 10 10 11 11 10 9 8 8 9 9 10 9 9 9 9 9 9 9 9 9 9 10 11 11 11 11 11 12 13 17 19 21 22 23 24 24 25 25 25 24
9 9 9 9 9 9 9 9 9 9 9 9 9 9 10 10 10 10 10 10 10 10 10 10 10 11 14 15 14 14 14 14 15 16 16 14 12 10 9 9 9 9 9 9 9 9 10 11 11 10 8 8 9 10 11 11 11 10 10 10 9 9 9 8 8 8 8 10 11 12 12 11 11 11 11 13 13 13 13 14 15 17 19 19 21 23
9 9 10 10 9 9 9 9 9 9 9 9 10 10 10 11 11 11 10 10 10 10 11 10 10 11 13 14 16 16 16 16 16 16 16 14 12 11 10 10 10 10 9 9 9 9 10 9 9 8 8 9 11 11 11 10 10 11 11 11 10 9 8 8 8 8 8 9 10 12 12 11 10 10 10 10 9 9 9 9 9 10 11 10 12 15
10 10 10 10 10 9 9 10 10 10 10 10 11 11 10 10 10 10 10 10 10 10 11 11 10 10 11 12 13 14 14 13 13 14 14 13 12 11 10 10 10 9 9 9 8 8 8 8 8 9 10 10 11 11 10 9 10 11 12 11 9 9 9 9 9 8 8 8 9 10 10 10 9 10 10 9 9 8 8 7 7 7 8 6 6 8
10 10 10 10 10 10 10 10 10 10 10 10 10 10 9 9 9 9 9 9 9 9 9 10 9 9 9 10 10 11 12 12 13 13 12 13 13 12 10 10 9 9 9 8 8 8 8 8 9 10 10 10 11 11 11 11 12 13 14 12 11 11 12 11 10 8 7 8 8 9 10 10 10 10 10 9 9 8 7 7 7 7 7 6 6 6
11 10 10 9 9 9 9 10 10 11 10 10 9 9 9 9 9 9 9 9 9 9 9 9 9 9 10 9 9 9 10 10 11 12 12 13 13 12 10 9 8 8 8 8 8 8 8 9 9 10 10 10 10 10 10 11 12 12 12 11 12 13 13 12 9 7 7 8 9 9 10 10 10 9 10 9 9 8 8 8 8 8 7 6 6 6
10 10 9 10 10 10 10 11 11 10 10 9 9 9 9 9 9 9 10 10 10 10 10 9 9 9 9 9 9 8 8 8 9 10 11 11 11 10 9 9 8 7 7 7 8 9 9 9 9 9 9 9 9 9 11 11 11 11 11 11 11 10 8 9 9 9 9 9 9 9 9 9 9 9 9 9 9 8 7 8 9 9 8 7 6 6
10 9 9 9 9 9 10 9 9 9 9 9 9 9 9 9 10 10 10 9 10 10 10 9 9 9 9 9 9 9 8 7 8 9 9 9 9 8 7 7 8 8 7 7 7 8 8 9 9 8 8 8 8 9 10 10 11 11 10 11 11 10 8 9 10 11 11 10 10 9 9 9 9 9 9 8 7 6 6 6 6 6 7 6 5 5
9 9 9 9 9 9 10 10 10 9 9 10 10 10 9 10 10 10 9 10 10 10 10 9 8 8 8 9 9 9 9 8 7 6 6 6 7 8 7 7 7 7 7 6 7 7 7 8 8 8 7 7 8 9 10 10 11 11 11 11 11 10 10 10 10 10 10 10 10 10 10 9 9 8 8 7 6 6 5 5 5 5 5 5 4 4
9 9 9 9 9 10 10 10 10 10 10 10 10 10 10 9 9 9 10 10 10 10 9 9 8 8 9 9 9 9 9 8 7 5 4 4 4 5 5 6 6 6 6 6 7 7 7 7 8 8 7 7 8 8 9 9 10 10 11 11 11 10 10 10 9 9 9 9 10 10 11 10 9 7 7 7 6 6 5 5 5 6 6 5 5 4
9 10 10 10 10 10 10 10 10 10 10 10 10 10 10 9 9 9 9 9 9 9 9 9 8 8 9 9 9 9 9 9 8 6 5 5 5 5 5 5 6 6 7 7 7 8 8 8 8 7 7 7 7 8 8 8 9 9 10 10 10 10 9 9 9 8 8 8 9 10 11 9 8 7 7 7 6 6 5 5 5 6 6 6 6 6
10 10 10 10 10 10 10 10 10 10 11 11 11 10 10 10 10 10 10 9 9 9 9 9 9 9 9 9 9 9 9 9 8 7 7 7 7 7 6 5 6 6 7 7 8 8 8 8 8 7 6 6 6 7 8 8 8 9 9 9 9 9 9 9 9 8 8 8 9 10 9 7 7 7 7 7 6 6 6 6 6 6 6 6 6 6
10 10 10 10 10 10 10 10 10 10 11 11 11 11 10 11 11 11 10 9 9 8 8 9 9 9 9 8 8 8 9 8 7 7 7 7 7 7 6 6 6 6 6 7 6 6 6 6 6 6 6 6 6 7 8 8 9 9 8 8 8 7 7 8 8 8 8 9 10 10 9 7 6 6 6 7 7 7 7 7 7 7 7 7 7 6
10 10 10 10 10 10 10 11 11 11 11 11 11 11 11 10 10 9 9 8 8 8 8 8 9 9 9 8 8 8 8 8 7 7 7 7 7 7 7 7 7 7 7 6 6 6 5 5 4 5 6 6 6 6 7 8 8 9 8 7 7 6 6 7 8 8 8 8 9 9 9 7 6 6 6 7 7 7 7 8 8 9 8 8 8 7
10 10 10 10 10 10 10 10 11 11 11 11 11 11 11 10 10 9 8 8 8 8 8 8 8 8 8 8 8 8 8 8 7 7 7 6 6 7 7 7 7 7 7 7 6 6 6 5 5 4 4 6 6 6 5 6 8 8 8 8 7 6 5 6 7 8 9 8 8 8 8 8 7 7 7 7 7 7 7 8 9 10 10 10 10 9
Wind_Direction
298 300 301 299 297 293 291 291 290 289 289 288 287 287 287 288 288 289 291 293 294 294 293 291 289 288 285 283 283 284 285 287 290 291 292 291 291 291 292 292 292 291 290 289 288 287 287 287 287 288 288 288 289 288 288 288 288 288 288 288 289 289 290 290 290 290 290 288 287 285 283 283 283 284 285 286 287 288 288 287 286 285 284 282 280 277
296 296 295 295 293 291 291 292 290 288 290 291 292 291 292 292 292 293 294 294 294 294 294 292 289 285 282 282 284 286 288 289 290 290 290 290 291 291 292 293 293 293 292 291 290 289 289 289 289 289 289 289 289 289 289 289 289 289 288 289 289 289 289 289 290 289 288 287 285 284 283 283 284 285 286 287 287 286 284 283 282 281 280 279 277 276
296 294 293 292 292 291 293 295 293 290 290 292 293 294 295 295 295 295 296 295 295 294 291 287 285 282 281 282 285 287 287 287 287 288 289 290 292 293 294 295 295 294 293 293 292 291 291 290 290 289 289 289 289 289 289 290 290 289 289 289 288 288 289 289 289 288 287 285 284 283 283 283 284 285 286 286 285 283 281 279 278 278 277 276 275 274
292 293 295 295 293 292 293 295 295 294 293 293 294 296 297 297 296 295 294 295 293 291 286 282 281 281 282 282 282 283 284 285 286 288 291 292 294 295 295 295 295 294 294 293 292 291 291 290 289 289 289 289 290 290 290 290 290 289 289 289 289 289 289 289 289 288 286 285 284 283 283 283 283 283 284 283 281 279 278 277 277 277 276 275 274 273
289 293 297 298 296 294 293 293 294 295 294 295 296 298 299 297 294 293 293 293 291 289 285 283 281 281 281 281 281 283 284 287 289 291 294 295 295 295 295 295 294 294 293 292 292 291 290 290 289 289 290 291 291 291 290 290 289 289 289 289 290 290 290 290 289 287 286 285 284 283 283 282 282 281 281 279 278 277 276 277 277 277 276 275 274 273
292 294 297 297 295 293 293 293 294 295 297 298 298 298 296 293 292 292 293 294 292 289 286 284 282 281 281 281 284 286 289 291 293 295 295 295 295 294 294 293 293 293 292 292 292 291 291 291 291 291 291 291 291 290 290 290 290 290 290 290 291 291 290 289 288 287 286 285 284 284 283 282 281 280 279 278 278 277 277 278 278 277 275 274 273 273
296 295 295 292 289 289 289 292 295 299 302 301 298 294 290 290 291 292 292 292 291 288 287 286 285 284 284 285 288 291 293 294 295 295 294 293 293 292 292 292 292 292 292 292 291 291 292 292 293 292 291 291 291 291 291 291 291 291 291 291 291 290 289 288 288 287 286 285 284 283 282 281 279 278 277 277 278 278 278 278 276 274 272 272 273 274
296 293 288 286 287 287 287 291 296 300 299 297 296 296 294 293 292 291 289 288 288 289 290 291 290 290 290 291 293 294 295 294 293 292 291 290 290 290 290 290 291 291 292 292 292 293 293 293 293 293 292 292 292 292 292 291 291 291 291 290 290 289 289 288 287 286 285 284 283 281 280 279 278 277 277 277 277 277 276 275 273 271 270 271 273 275
290 288 285 284 287 290 293 292 291 290 288 289 292 296 298 297 295 292 291 290 291 293 297 297 297 296 295 295 294 293 291 288 286 285 285 285 286 287 288 289 290 291 292 293 293 294 294 294 294 294 294 293 293 292 292 291 291 290 290 290 289 288 288 287 286 285 284 283 281 280 279 278 277 277 276 276 276 275 273 272 270 270 270 272 274 276
282 283 285 285 286 289 293 296 295 291 287 287 287 289 291 295 298 299 300 299 300 300 300 299 298 297 295 293 290 288 286 284 282 282 283 284 285 287 288 290 291 293 294 294 295 295 295 295 295 295 294 293 292 291 291 290 290 290 289 289 288 287 286 285 285 284 283 282 281 279 278 277 276 276 275 274 273 272 270 269 269 270 272 274 275 277
281 281 284 289 291 290 290 296 298 298 296 291 287 284 283 291 300 304 306 305 305 304 300 295 293 292 293 291 289 285 283 282 281 281 282 284 286 288 290 291 292 293 293 294 295 295 295 294 294 293 292 291 290 290 290 290 289 289 288 287 287 286 285 285 284 283 283 281 280 279 278 277 275 274 272 271 269 268 267 268 270 272 274 276 277 277
283 287 293 300 302 301 299 300 300 299 299 298 296 295 294 299 304 306 305 304 303 303 299 294 289 286 286 288 288 286 283 281 281 281 282 284 286 288 289 289 290 290 292 293 293 293 293 292 292 291 290 289 289 289 288 288 288 287 287 286 286 285 285 284 283 282 281 280 278 278 277 276 275 273 270 268 267 266 267 270 272 274 277 278 278 277
291 303 307 304 304 304 305 305 304 302 301 301 301 303 304 307 308 305 300 297 297 297 295 292 288 284 282 283 284 284 282 280 280 281 283 285 287 288 287 286 286 287 290 291 291 290 291 290 289 289 288 287 287 287 287 287 287 286 286 285 285 284 284 283 282 281 280 279 278 277 277 276 274 272 269 269 269 270 272 274 276 278 279 279 278 278
308 309 305 304 304 305 305 304 303 301 301 301 302 303 305 307 306 303 297 293 291 291 290 288 287 286 285 283 281 279 277 279 282 284 286 287 289 290 293 291 291 290 291 290 289 288 288 288 287 286 285 285 285 286 285 285 285 285 284 284 283 283 283 282 281 281 280 279 279 278 277 276 274 272 271 273 274 276 278 279 280 280 280 279 279 278
311 309 306 305 304 303 303 302 299 298 299 301 303 304 304 303 301 297 294 291 291 290 289 287 286 285 283 283 280 278 278 284 290 294 293 288 288 292 298 295 293 291 290 288 286 285 286 284 283 282 281 281 281 282 282 282 283 283 283 283 283 283 283 283 283 282 282 281 281 280 279 278 278 278 278 279 280 281 282 282 281 281 280 279 279 279
309 307 304 302 301 299 299 298 298 299 300 303 303 302 301 299 297 295 293 292 293 293 292 292 292 290 287 286 285 287 291 295 296 295 296 293 294 298 300 295 292 290 287 285 284 284 284 282 280 279 278 279 280 281 282 282 283 283 283 284 284 285 286 286 286 286 285 284 284 283 283 283 283 283 283 283 283 283 283 282 282 281 280 279 279 279
305 303 300 300 299 298 298 298 298 299 301 301 299 296 294 294 295 295 293 294 294 295 295 297 298 299 299 299 297 296 304 303 300 298 297 295 296 298 298 292 289 287 287 284 283 282 282 280 278 277 276 278 280 282 283 284 284 284 284 285 286 287 289 289 289 288 288 287 286 286 286 287 286 286 285 284 283 282 282 281 280 279 279 279 279 278
301 300 300 299 298 299 300 301 300 299 297 295 295 294 293 293 294 295 296 297 298 300 301 299 298 299 301 303 305 309 313 308 303 300 297 294 295 296 295 288 285 284 285 283 281 279 277 277 276 276 277 280 282 284 285 286 286 286 286 287 288 290 291 291 290 290 289 289 288 288 288 287 286 285 284 282 281 281 280 279 278 277 277 278 278 277
298 298 299 298 298 298 299 299 298 297 295 295 298 299 299 299 300 301 300 300 299 299 299 298 296 295 297 298 301 306 310 305 300 296 294 293 294 295 294 287 283 281 282 281 280 278 275 273 273 274 277 280 282 284 286 287 287 288 289 290 291 292 292 292 291 291 290 290 289 288 287 286 285 283 282 281 280 279 278 276 275 275 276 277 277 277
295 296 296 297 298 297 295 293 291 291 294 299 302 304 304 304 303 301 298 297 296 294 294 293 292 293 293 293 296 300 304 300 296 292 291 290 291 292 291 286 283 281 279 278 277 274 271 270 272 274 277 280 282 285 287 288 289 290 291 292 292 292 292 292 291 291 290 289 288 287 286 284 283 282 281 280 279 277 275 274 274 274 276 276 276 276
294 293 292 293 293 292 290 289 290 293 299 305 307 306 303 301 300 297 295 294 292 290 289 287 288 289 291 291 293 297 302 300 296 292 290 289 288 288 288 284 280 278 278 278 276 273 269 269 270 272 274 281 285 287 289 289 290 291 291 291 292 292 291 291 291 290 290 289 288 287 285 284 284 283 281 279 277 275 274 274 274 275 276 276 275 274
290 290 290 287 284 283 283 286 291 298 305 306 305 301 299 298 297 295 294 293 291 289 289 287 287 287 288 288 290 294 298 294 289 287 288 287 286 285 286 283 282 280 280 281 280 277 272 271 271 275 279 283 286 288 288 288 289 289 289 289 290 290 290 291 291 290 290 289 288 288 287 286 285 283 281 279 278 277 277 277 278 278 277 276 274 272
283 284 286 284 281 279 282 289 295 299 302 300 297 295 295 294 293 293 294 293 292 290 289 286 284 283 281 283 286 289 289 284 280 280 282 284 285 287 289 286 283 281 280 282 283 282 280 278 279 281 283 284 285 286 286 286 286 286 286 287 288 288 289 290 290 290 290 290 289 289 288 287 286 285 284 283 283 283 283 282 281 279 277 275 273 271
283 284 284 283 282 283 287 292 295 298 298 297 296 295 294 291 290 289 290 290 289 287 285 283 281 280 280 284 286 287 287 284 281 278 278 281 284 287 290 288 285 284 283 286 288 290 288 286 285 284 283 282 282 282 282 283 283 284 284 285 286 286 287 287 288 288 289 289 288 288 288 287 287 287 287 287 287 286 285 283 281 278 276 274 272 270
289 289 289 291 294 296 299 300 301 302 303 302 301 300 298 294 292 290 288 286 284 283 281 282 283 285 289 291 291 290 290 287 284 280 279 281 283 286 289 290 290 288 288 289 290 290 289 287 284 282 279 278 278 279 280 280 281 282 282 283 284 284 284 285 285 285 286 286 286 286 286 286 287 287 287 287 285 283 282 280 278 276 274 272 270 269
298 299 300 301 302 302 303 303 304 305 306 305 304 303 301 297 294 291 287 284 283 283 285 286 288 290 292 293 292 290 292 290 285 281 279 282 285 287 289 291 290 288 289 289 290 288 286 285 284 282 279 277 277 277 277 278 279 280 280 281 282 282 282 283 283 283 284 284 284 284 284 285 284 284 283 282 280 278 277 276 275 273 272 270 268 267
302 302 303 303 303 304 304 305 305 305 305 304 303 302 300 298 295 291 287 287 288 289 290 292 292 292 292 291 290 290 294 294 289 283 279 282 284 286 289 291 290 289 289 289 288 286 285 284 283 282 280 277 275 274 274 275 276 277 278 279 280 281 282 282 283 283 283 283 283 283 282 282 281 279 278 277 276 275 275 274 273 272 271 269 268 265
303 304 304 304 304 304 304 304 304 304 303 302 301 301 300 298 294 291 289 291 292 291 290 291 292 293 293 291 291 292 293 292 289 285 283 282 282 284 289 292 292 291 291 289 287 284 282 281 281 280 278 275 272 271 271 273 274 276 277 278 280 281 282 282 282 282 282 282 281 280 279 279 278 277 277 277 277 277 277 276 275 274 272 270 267 263
304 304 303 303 303 302 302 302 302 301 300 300 300 300 299 295 291 289 290 292 291 289 287 288 290 292 292 292 292 291 290 288 289 291 293 288 284 284 290 292 292 292 292 291 287 284 278 277 277 278 277 276 274 272 272 273 274 276 277 278 279 280 281 281 281 280 280 279 278 278 277 277 278 279 280 280 280 280 279 278 277 276 273 270 266 262
304 303 302 301 301 300 300 299 298 297 297 297 298 298 297 292 287 284 286 288 287 287 287 289 291 292 292 293 293 291 288 290 295 301 303 294 288 287 292 291 291 292 295 295 292 287 281 278 279 281 283 283 282 281 279 277 276 276 276 277 278 278 278 278 278 278 277 277 277 277 278 279 281 282 282 282 281 280 279 277 276 274 269 264 259 256
305 303 300 300 299 298 297 296 294 294 295 296 296 296 294 289 284 282 282 284 284 285 287 289 290 291 292 293 293 293 292 297 303 306 304 293 287 287 292 291 290 291 293 295 295 295 294 291 288 287 289 288 287 285 282 280 277 275 274 276 276 276 276 277 278 278 279 279 279 280 281 282 283 283 283 282 280 279 277 275 272 269 262 255 250 247
303 301 299 299 299 298 296 295 294 293 293 294 293 292 290 288 286 284 283 283 283 284 285 287 288 287 287 286 286 288 291 297 302 303 299 292 286 286 290 289 289 290 290 288 289 292 297 299 299 297 293 289 287 284 281 280 278 276 276 276 274 274 276 279 280 281 282 282 283 283 283 283 283 283 282 280 279 277 275 273 271 267 259 252 245 241
301 300 299 299 298 297 295 294 293 293 292 293 292 291 291 290 288 287 286 284 283 283 285 286 287 287 285 282 281 282 285 290 295 298 298 293 288 287 289 289 289 290 290 287 285 285 287 292 297 298 293 288 285 284 283 281 279 277 275 276 277 278 280 284 284 285 285 284 284 284 283 283 282 281 280 278 277 275 273 271 269 266 260 253 245 239
300 299 298 298 297 296 294 294 294 294 294 295 295 295 295 293 292 291 289 286 284 283 283 284 286 287 287 285 283 282 284 287 293 297 298 294 289 287 289 289 290 290 291 288 286 285 283 287 291 294 294 291 287 285 284 283 283 281 279 280 281 283 285 286 286 285 285 284 284 282 281 280 279 278 277 276 274 273 271 269 267 264 261 256 248 241
299 298 299 299 299 299 299 299 299 299 299 299 299 299 298 297 295 293 291 288 286 283 281 281 281 283 285 286 286 286 287 290 294 297 297 292 289 287 288 288 289 290 290 288 288 288 287 287 289 291 293 293 291 288 286 288 289 290 289 287 286 285 285 285 285 284 283 282 280 277 276 274 273 272 272 272 271 270 269 268 266 263 261 257 252 246
299 299 301 302 303 304 304 305 305 305 304 303 302 301 300 298 296 294 292 289 287 285 283 281 279 278 279 280 282 284 287 290 292 293 293 290 288 287 287 286 287 288 288 287 287 288 288 289 289 290 291 292 294 296 296 296 297 297 295 293 290 287 284 282 281 279 278 277 275 274 272 270 268 267 268 269 270 270 269 268 266 263 261 257 254 249
300 301 304 306 308 308 308 308 308 307 306 305 304 303 302 300 298 296 293 290 287 285 284 282 279 276 275 274 275 277 280 284 287 287 287 286 284 283 282 283 284 285 285 286 287 289 289 289 290 290 291 293 297 301 303 305 304 303 299 296 293 289 284 280 275 272 272 272 272 272 272 270 269 268 268 270 271 271 270 268 266 263 261 258 255 251
304 306 309 311 311 311 310 309 309 308 307 306 305 304 303 300 298 296 293 290 287 285 283 282 280 277 275 274 273 273 275 277 279 280 280 280 279 278 278 280 281 282 281 283 285 286 287 288 292 295 297 299 299 299 301 305 307 306 302 298 293 288 283 278 273 270 269 271 273 274 275 273 272 271 271 271 271 270 268 265 263 260 259 257 255 252
309 310 312 313 313 312 311 309 308 307 307 306 304 303 301 299 296 294 292 290 288 285 283 281 280 278 276 274 273 273 274 275 275 276 277 277 276 276 277 279 280 281 280 278 279 280 281 286 293 300 306 304 302 300 300 303 305 304 302 300 295 290 284 281 278 275 273 275 277 279 279 277 275 273 272 272 271 268 265 263 260 256 254 251 251 250
312 312 312 312 312 311 309 307 306 306 306 304 303 301 300 299 297 295 293 291 289 287 285 282 280 278 276 275 275 275 275 275 275 275 275 274 272 272 275 277 279 280 280 277 276 277 281 289 295 299 302 299 298 299 302 303 303 302 303 303 301 299 297 295 289 283 278 276 278 280 281 280 278 277 276 275 272 270 267 266 262 257 251 244 241 242
314 312 311 311 310 308 306 305 305 305 305 304 304 303 302 301 300 299 298 296 293 291 289 287 285 281 278 276 275 275 275 274 274 273 273 271 270 270 272 275 277 279 281 282 282 285 290 295 297 297 296 293 293 295 298 298 299 299 300 299 298 298 300 298 294 289 285 283 283 284 285 286 285 284 282 280 277 273 270 268 266 262 256 243 234 230
313 311 310 310 309 308 308 307 306 306 304 304 303 302 302 302 302 302 301 301 299 298 297 296 293 291 287 284 281 278 275 273 273 272 272 271 271 272 273 274 277 281 286 290 293 294 296 296 295 293 291 292 294 295 296 294 294 295 295 294 296 298 299 298 297 296 297 295 293 292 291 291 290 290 289 287 284 281 276 271 269 266 262 250 239 232
311 310 308 308 307 307 307 307 307 307 307 305 303 302 301 302 302 301 301 300 300 300 300 298 296 294 292 291 289 287 283 277 275 274 275 275 275 275 276 279 284 289 295 298 299 298 296 293 290 288 288 291 292 292 291 292 293 293 293 294 298 303 304 306 309 309 306 302 299 296 294 293 293 293 292 290 288 285 283 279 276 273 268 261 250 241
308 308 307 307 307 308 309 309 309 308 308 306 304 302 301 301 301 301 300 299 299 299 299 298 296 293 292 292 294 296 295 290 284 280 277 277 278 281 286 289 293 296 299 299 298 297 297 294 290 287 287 288 287 286 286 288 291 294 295 296 297 297 294 299 304 307 306 303 301 298 296 296 295 295 294 291 288 286 286 284 280 275 269 263 255 248
307 308 308 309 310 311 311 310 309 308 307 305 303 302 302 302 302 302 300 299 299 299 298 299 298 297 297 298 300 301 301 300 297 291 281 281 288 295 300 299 299 299 299 295 293 292 292 292 290 289 289 286 283 281 282 286 290 293 296 298 298 295 290 291 294 297 299 300 301 300 300 300 300 299 297 296 296 295 295 295 293 291 287 281 272 263
310 310 311 311 311 311 310 309 309 308 306 305 303 303 304 304 303 301 299 299 299 298 298 299 299 299 300 302 303 305 305 305 305 305 304 305 308 308 305 302 302 302 300 294 289 285 282 281 283 286 288 285 281 278 278 282 288 292 296 300 301 301 298 296 295 295 296 298 299 301 303 305 304 303 304 305 306 306 305 306 308 310 311 308 303 295
313 312 312 311 310 309 309 309 309 308 307 306 305 305 306 305 304 302 300 300 299 299 299 300 298 297 297 300 302 305 306 308 311 316 324 325 322 316 310 308 308 306 301 295 289 283 277 272 271 273 276 280 282 283 282 284 288 292 296 301 303 304 303 303 302 301 300 300 301 304 308 312 313 314 314 314 314 315 317 319 321 322 322 320 318 315
313 312 311 310 310 309 309 309 309 309 307 306 306 306 307 307 307 306 304 304 303 302 301 302 300 298 297 299 300 302 305 309 315 322 327 326 323 320 319 319 316 311 305 299 293 287 280 271 263 258 257 264 273 282 288 291 294 295 297 300 301 303 303 304 305 306 306 305 307 309 313 317 321 322 320 320 322 325 330 332 334 335 334 329 325 322
311 310 310 309 309 309 309 309 309 309 307 306 306 307 307 308 308 307 305 305 304 302 302 302 301 301 301 302 303 305 308 313 318 323 324 322 321 321 323 324 323 320 314 308 304 298 291 278 263 250 241 247 261 276 288 295 298 299 299 298 299 301 303 306 308 310 312 312 314 317 320 322 323 323 323 325 328 331 336 341 344 344 342 337 333 328
310 309 309 308 308 308 308 309 309 308 306 306 307 307 308 308 308 307 305 303 302 301 300 301 301 302 304 306 309 312 317 320 321 321 321 321 322 323 325 327 327 326 323 322 322 322 319 310 290 266 250 253 265 280 292 299 302 304 303 303 304 305 308 310 312 314 317 317 319 322 326 327 330 332 333 334 334 336 341 347 350 350 347 343 340 336
310 309 308 308 307 307 307 307 307 306 305 306 307 307 308 309 308 308 307 306 305 303 302 301 302 304 307 311 314 317 320 320 319 319 320 321 322 324 326 327 328 329 328 330 333 335 336 334 327 313 290 287 294 303 302 304 307 310 313 315 316 316 316 316 317 318 319 319 321 325 330 335 339 342 344 341 340 341 345 349 350 350 349 347 346 344